Location: Clatteringshaws Loch
(55.0508°N, 4.2860°W)
Time: 03:39:10
(UTC+01:00)

ALOS - Visible Passes

Search period start: 29 July 2015 00:00
Search period end: 08 August 2015 00:00
Orbit: 686 x 688 km, 97.9° (Epoch: 28 July)

Date Brightness Start Highest point End Pass type
(mag) Time Alt. Az. Time Alt. Az. Time Alt. Az.
30 Jul 4.1 22:15:22 10° SSW 22:19:28 29° W 22:23:33 10° NNW visible
31 Jul 4.9 22:55:10 10° WSW 22:57:56 15° W 23:00:33 10° NW visible
02 Aug 4.6 22:32:24 10° SW 22:36:05 22° W 22:39:40 10° NW visible
03 Aug 5.2 23:13:19 10° W 23:14:38 11° W 23:15:44 10° WNW visible
04 Aug 4.0 22:10:05 10° SSW 22:14:16 32° W 22:18:28 10° NNW visible
05 Aug 4.8 22:49:42 10° SW 22:52:42 16° W 22:55:35 10° NW visible
07 Aug 4.5 22:27:02 10° SW 22:30:51 24° W 22:34:36 10° NW visible
